Fargo, ND

11:24 PM CST on December 12, 2019 (GMT -0600)
Hector International

Weather History for KFAR - October, 2019

Change the Weather History Date:

Friday, October 4, 2019

  Actual Average Record
Temperature  
Mean Temperature 46 °F 51 °F  
Max Temperature 51 °F 62 °F 87 °F (1975)
Min Temperature 42 °F 40 °F 22 °F (2004)
Degree Days  
Heating Degree Days 18 14  
Month to date heating degree days 84 54  
Since 1 July heating degree days 299 324  
Cooling Degree Days 0 0  
Month to date cooling degree days 0 0  
Year to date cooling degree days 527 548  
Moisture  
Dew Point 38 °F    
Average Humidity 76    
Maximum Humidity 89    
Minimum Humidity 66    
Precipitation  
Precipitation 0.06 in 0.08 in 1.84 in (1913)
Month to date precipitation 0.57 0.33  
Year to date precipitation 25.27 18.93  
Snow  
Snow 0.00 in 0.00 in 1.40 in (2012)
Month to date snowfall 0.0 0.0  
Since 1 July snowfall 0.0 0.0  
Since 1 September snowfall 0.0 0.0  
Snow Depth 0.00 in    
Sea Level Pressure  
Sea Level Pressure 30.30 in    
Wind  
Wind Speed 8 mph ()    
Max Wind Speed 22 mph    
Max Gust Speed 35 mph    
Visibility 9.9 miles    
Events Rain    
T = Trace of Precipitation, MM = Missing Value Source: Averaged Metar Reports

Daily Weather History Graph

Daily Weather History Graph

Search for Another Location

Airport or City:

Astronomy

Oct. 04, 2019 Rise Set
Actual Time 7:29 AM CDT 7:01 PM CDT
Civil Twilight 6:59 AM CDT 7:31 PM CDT
Nautical Twilight 6:24 AM CDT 8:06 PM CDT
Astronomical Twilight 5:48 AM CDT 8:42 PM CDT
Moon 2:23 PM CDT (10/4) 11:10 PM CDT (10/4)
Length of Visible Light 12h 32m
Length of Day
11h 31m
Waxing Crescent, 40% of the Moon is Illuminated
Oct 4
Waxing Crescent
Oct 5
First Quarter
Oct 13
Full
Oct 21
Last Quarter
Oct 27
New

Hourly Weather History & Observations

Time (CDT) Temp. Windchill Dew Point Humidity Pressure Visibility Wind Dir Wind Speed Gust Speed Precip Events Conditions
12:53 AM 43.0 °F - 37.9 °F 82% 30.42 in 10.0 mi Calm Calm - N/A   Overcast
1:53 AM 43.0 °F 41.3 °F 37.9 °F 82% 30.43 in 10.0 mi South 3.5 mph - N/A   Overcast
2:53 AM 43.0 °F 38.8 °F 37.0 °F 80% 30.43 in 10.0 mi SSE 6.9 mph - N/A   Overcast
3:53 AM 42.1 °F 36.6 °F 37.0 °F 82% 30.43 in 10.0 mi ESE 9.2 mph - N/A   Overcast
4:32 AM 42.1 °F 39.2 °F 37.0 °F 82% 30.40 in 10.0 mi SE 4.6 mph - N/A   Overcast
4:53 AM 42.1 °F 37.7 °F 37.0 °F 82% 30.44 in 10.0 mi SSE 6.9 mph - N/A   Overcast
5:28 AM 42.1 °F 36.6 °F 37.0 °F 82% 30.40 in 10.0 mi SSE 9.2 mph - N/A   Overcast
5:38 AM 42.1 °F 36.6 °F 37.0 °F 82% 30.40 in 10.0 mi SSE 9.2 mph - N/A   Overcast
5:53 AM 42.1 °F 37.1 °F 37.0 °F 82% 30.43 in 10.0 mi SE 8.1 mph - N/A   Overcast
6:53 AM 43.0 °F 37.7 °F 37.0 °F 80% 30.42 in 10.0 mi SSE 9.2 mph - N/A   Overcast
7:53 AM 43.0 °F 38.2 °F 37.0 °F 80% 30.42 in 10.0 mi SSE 8.1 mph - N/A   Overcast
8:53 AM 44.1 °F 39.5 °F 37.0 °F 76% 30.40 in 10.0 mi SE 8.1 mph 18.4 mph N/A   Overcast
10:53 AM 45.0 °F 37.9 °F 37.0 °F 74% 30.40 in 10.0 mi South 16.1 mph 25.3 mph N/A   Unknown
11:05 AM 45.0 °F 38.2 °F 37.0 °F 74% 30.36 in 10.0 mi SSE 15.0 mph 25.3 mph N/A   Overcast
11:53 AM 46.0 °F 38.5 °F 37.0 °F 71% 30.37 in 10.0 mi SSE 19.6 mph 29.9 mph N/A   Overcast
12:53 PM 48.0 °F - 37.0 °F 66% 30.33 in 10.0 mi SE 13.8 mph 26.5 mph N/A   Overcast
1:53 PM 48.0 °F - 37.9 °F 68% 30.31 in 10.0 mi SSE 15.0 mph 26.5 mph N/A   Overcast
2:53 PM 48.9 °F - 39.0 °F 69% 30.27 in 10.0 mi SSE 16.1 mph 26.5 mph N/A   Overcast
3:53 PM 50.0 °F - 39.0 °F 66% 30.23 in 10.0 mi SSE 19.6 mph 29.9 mph N/A   Overcast
4:53 PM 50.0 °F - 39.9 °F 68% 30.19 in 10.0 mi SE 10.4 mph 23.0 mph N/A   Mostly Cloudy
5:53 PM 48.9 °F - 39.0 °F 69% 30.18 in 10.0 mi SE 16.1 mph 25.3 mph N/A   Overcast
6:50 PM 48.2 °F - 37.4 °F 66% 30.14 in 10.0 mi SE 16.1 mph 25.3 mph N/A   Overcast
6:53 PM 48.0 °F - 37.9 °F 68% 30.17 in 10.0 mi SE 10.4 mph 25.3 mph N/A   Overcast
7:53 PM 46.9 °F - 39.0 °F 74% 30.14 in 10.0 mi SE 10.4 mph 21.9 mph N/A   Scattered Clouds
8:53 PM 46.0 °F 40.2 °F 39.0 °F 76% 30.13 in 10.0 mi SE 12.7 mph 23.0 mph N/A   Mostly Cloudy
9:53 PM 46.9 °F - 39.0 °F 74% 30.11 in 10.0 mi SE 16.1 mph 26.5 mph N/A   Overcast
10:53 PM 46.0 °F 39.3 °F 39.0 °F 76% 30.09 in 10.0 mi SE 16.1 mph 33.4 mph 0.00 in Rain Light Rain
11:53 PM 45.0 °F 38.5 °F 41.0 °F 86% 30.06 in 8.0 mi SE 13.8 mph 23.0 mph 0.00 in Rain Rain